Time,TemperatureF,DewpointF,PressureIn,WindDirection,WindDirectionDegrees,WindSpeedMPH,WindSpeedGustMPH,Humidity,HourlyPrecipIn,Conditions,Clouds,dailyrainin,SoftwareType,DateUTC
2013-02-13 00:00:00,33.6,23.1,28.94,East,90,0.0,0.0,65,0.04,,,0.00,VWS V14.01,2013-02-13 06:00:00,
2013-02-13 00:05:00,33.4,22.6,28.94,East,90,0.0,0.9,64,0.04,,,0.00,VWS V14.01,2013-02-13 06:05:00,
2013-02-13 00:10:00,33.4,22.6,28.94,East,90,0.0,0.0,64,0.04,,,0.00,VWS V14.01,2013-02-13 06:10:00,
2013-02-13 00:15:00,33.3,22.4,28.94,NNW,338,0.0,1.6,64,0.00,,,0.00,VWS V14.01,2013-02-13 06:15:00,
2013-02-13 00:20:00,33.3,22.8,28.91,NNW,338,0.0,0.0,65,0.00,,,0.00,VWS V14.01,2013-02-13 06:20:00,
2013-02-13 00:25:00,33.3,22.8,28.91,NNW,338,0.0,0.0,65,0.00,,,0.00,VWS V14.01,2013-02-13 06:25:00,
2013-02-13 00:30:00,33.3,22.8,28.91,NNW,338,0.0,0.0,65,0.00,,,0.00,VWS V14.01,2013-02-13 06:30:00,
2013-02-13 00:35:00,33.3,22.8,28.91,NNW,338,0.0,0.0,65,0.00,,,0.00,VWS V14.01,2013-02-13 06:35:00,
2013-02-13 00:40:00,33.3,23.1,28.91,NNW,338,0.0,0.0,66,0.00,,,0.00,VWS V14.01,2013-02-13 06:40:00,
2013-02-13 00:45:00,33.3,23.1,28.91,NNW,338,0.0,0.0,66,0.00,,,0.00,VWS V14.01,2013-02-13 06:45:00,
2013-02-13 00:50:00,33.3,23.1,28.91,NNW,338,0.0,0.0,66,0.00,,,0.00,VWS V14.01,2013-02-13 06:50:00,
2013-02-13 00:55:00,33.3,23.1,28.91,NNW,338,0.0,0.0,66,0.00,,,0.00,VWS V14.01,2013-02-13 06:55:00,
2013-02-13 01:00:00,33.3,23.1,28.91,NNW,338,0.0,0.0,66,0.00,,,0.00,VWS V14.01,2013-02-13 07:00:00,
2013-02-13 01:05:00,33.3,23.5,28.91,NNW,338,0.0,0.0,67,0.00,,,0.00,VWS V14.01,2013-02-13 07:05:00,
2013-02-13 01:10:00,33.3,23.5,28.91,NNW,338,0.0,0.0,67,0.00,,,0.00,VWS V14.01,2013-02-13 07:10:00,
2013-02-13 01:15:00,33.3,23.5,28.91,NNW,338,0.0,0.0,67,0.00,,,0.00,VWS V14.01,2013-02-13 07:15:00,
2013-02-13 01:20:00,33.3,23.5,28.91,NNW,338,0.0,0.0,67,0.00,,,0.00,VWS V14.01,2013-02-13 07:20:00,
2013-02-13 01:25:00,33.3,23.5,28.91,NNW,338,0.0,0.0,67,0.00,,,0.00,VWS V14.01,2013-02-13 07:25:00,
2013-02-13 01:30:00,33.3,23.5,28.91,NNW,338,0.0,0.0,67,0.00,,,0.00,VWS V14.01,2013-02-13 07:30:00,
2013-02-13 01:35:00,33.3,23.5,28.88,NNW,338,0.0,0.0,67,0.00,,,0.00,VWS V14.01,2013-02-13 07:35:00,
2013-02-13 01:40:00,33.3,23.5,28.88,NNW,338,0.0,0.0,67,0.00,,,0.00,VWS V14.01,2013-02-13 07:40:00,
2013-02-13 01:45:00,33.3,23.5,28.88,NNW,338,0.0,0.0,67,0.00,,,0.00,VWS V14.01,2013-02-13 07:45:00,
2013-02-13 01:50:00,33.3,23.5,28.88,NNW,338,0.0,0.0,67,0.00,,,0.00,VWS V14.01,2013-02-13 07:50:00,
2013-02-13 01:55:00,33.3,23.5,28.88,NNW,338,0.0,0.0,67,0.00,,,0.00,VWS V14.01,2013-02-13 07:55:00,
2013-02-13 02:00:00,33.1,23.3,28.88,NNW,338,0.0,0.0,67,0.00,,,0.00,VWS V14.01,2013-02-13 08:00:00,
2013-02-13 02:05:00,33.3,23.9,28.88,NNW,338,0.0,0.0,68,0.00,,,0.00,VWS V14.01,2013-02-13 08:05:00,
2013-02-13 02:10:00,33.3,23.9,28.88,NNW,338,0.0,0.0,68,0.00,,,0.00,VWS V14.01,2013-02-13 08:10:00,
2013-02-13 02:15:00,33.3,23.9,28.88,NNW,338,0.0,0.0,68,0.00,,,0.00,VWS V14.01,2013-02-13 08:15:00,
2013-02-13 02:20:00,33.3,24.2,28.88,NNW,338,0.0,0.0,69,0.00,,,0.00,VWS V14.01,2013-02-13 08:20:00,
2013-02-13 02:25:00,33.1,24.0,28.88,NNW,338,0.0,0.0,69,0.00,,,0.00,VWS V14.01,2013-02-13 08:25:00,
2013-02-13 02:30:00,33.3,24.2,28.88,NNW,338,0.0,0.0,69,0.00,,,0.00,VWS V14.01,2013-02-13 08:30:00,
2013-02-13 02:35:00,33.3,24.2,28.88,NNW,338,0.0,0.0,69,0.00,,,0.00,VWS V14.01,2013-02-13 08:35:00,
2013-02-13 02:40:00,33.3,24.2,28.88,NNW,338,0.0,0.0,69,0.00,,,0.00,VWS V14.01,2013-02-13 08:40:00,
2013-02-13 02:45:00,33.3,24.2,28.88,NNW,338,0.0,0.0,69,0.00,,,0.00,VWS V14.01,2013-02-13 08:45:00,
2013-02-13 02:50:00,33.3,24.2,28.88,NNW,338,0.0,0.0,69,0.00,,,0.00,VWS V14.01,2013-02-13 08:50:00,
2013-02-13 02:55:00,33.3,24.5,28.88,NNW,338,0.0,0.0,70,0.00,,,0.00,VWS V14.01,2013-02-13 08:55:00,
2013-02-13 03:00:00,33.1,24.4,28.88,NNW,338,0.0,0.0,70,0.00,,,0.00,VWS V14.01,2013-02-13 09:00:00,
2013-02-13 03:05:00,33.3,24.5,28.88,NNW,338,0.0,0.0,70,0.00,,,0.00,VWS V14.01,2013-02-13 09:05:00,
2013-02-13 03:10:00,33.1,24.4,28.85,NNW,338,0.0,0.0,70,0.00,,,0.00,VWS V14.01,2013-02-13 09:10:00,
2013-02-13 03:15:00,33.1,24.4,28.85,NNW,338,0.0,0.0,70,0.00,,,0.00,VWS V14.01,2013-02-13 09:15:00,
2013-02-13 03:20:00,33.1,24.4,28.85,NNW,338,0.0,0.0,70,0.00,,,0.00,VWS V14.01,2013-02-13 09:20:00,
2013-02-13 03:25:00,33.1,24.4,28.85,NNW,338,0.0,0.0,70,0.00,,,0.00,VWS V14.01,2013-02-13 09:25:00,
2013-02-13 03:30:00,33.1,24.4,28.85,NNW,338,0.0,0.0,70,0.00,,,0.00,VWS V14.01,2013-02-13 09:30:00,
2013-02-13 03:35:00,33.1,24.4,28.85,NNW,338,0.0,0.0,70,0.00,,,0.00,VWS V14.01,2013-02-13 09:35:00,
2013-02-13 03:40:00,33.1,24.4,28.85,NNW,338,0.0,0.0,70,0.00,,,0.00,VWS V14.01,2013-02-13 09:40:00,
2013-02-13 03:45:00,33.1,24.4,28.85,NNW,338,0.0,0.0,70,0.00,,,0.00,VWS V14.01,2013-02-13 09:45:00,
2013-02-13 03:50:00,33.1,24.4,28.85,NNW,338,0.0,0.0,70,0.00,,,0.00,VWS V14.01,2013-02-13 09:50:00,
2013-02-13 03:55:00,33.1,24.4,28.85,NNW,338,0.0,0.0,70,0.00,,,0.00,VWS V14.01,2013-02-13 09:55:00,
2013-02-13 04:00:00,33.3,24.5,28.85,NNW,338,0.0,0.0,70,0.00,,,0.00,VWS V14.01,2013-02-13 10:00:00,
2013-02-13 04:05:00,33.1,24.4,28.85,NNW,338,0.0,0.0,70,0.00,,,0.00,VWS V14.01,2013-02-13 10:05:00,
2013-02-13 04:10:00,33.1,24.7,28.85,NNW,338,0.0,0.0,71,0.00,,,0.00,VWS V14.01,2013-02-13 10:10:00,
2013-02-13 04:15:00,33.1,24.7,28.85,NNW,338,0.0,0.0,71,0.00,,,0.00,VWS V14.01,2013-02-13 10:15:00,
2013-02-13 04:19:00,33.3,24.9,28.85,NNW,338,0.0,0.0,71,0.00,,,0.00,VWS V14.01,2013-02-13 10:19:00,
2013-02-13 04:24:00,33.3,24.9,28.85,NNW,338,0.0,0.0,71,0.00,,,0.00,VWS V14.01,2013-02-13 10:24:00,
2013-02-13 04:30:00,33.1,24.7,28.85,NNW,338,0.0,0.0,71,0.00,,,0.00,VWS V14.01,2013-02-13 10:30:00,
2013-02-13 04:35:00,33.1,24.7,28.85,NNW,338,0.0,0.0,71,0.00,,,0.00,VWS V14.01,2013-02-13 10:35:00,
2013-02-13 04:40:00,33.3,24.9,28.85,NNW,338,0.0,0.0,71,0.00,,,0.00,VWS V14.01,2013-02-13 10:40:00,
2013-02-13 04:44:00,33.3,24.9,28.85,NNW,338,0.0,0.0,71,0.00,,,0.00,VWS V14.01,2013-02-13 10:44:00,
2013-02-13 04:50:00,33.3,24.9,28.85,NNW,338,0.0,0.0,71,0.00,,,0.00,VWS V14.01,2013-02-13 10:50:00,
2013-02-13 04:55:00,33.3,25.2,28.85,NNW,338,0.0,0.0,72,0.00,,,0.00,VWS V14.01,2013-02-13 10:55:00,
2013-02-13 05:00:00,33.3,25.2,28.85,NNW,338,0.0,0.0,72,0.00,,,0.00,VWS V14.01,2013-02-13 11:00:00,
2013-02-13 05:05:00,33.1,25.0,28.85,NNW,338,0.0,0.0,72,0.00,,,0.00,VWS V14.01,2013-02-13 11:05:00,
2013-02-13 05:10:00,33.1,25.0,28.85,NNW,338,0.0,0.0,72,0.00,,,0.00,VWS V14.01,2013-02-13 11:10:00,
2013-02-13 05:15:00,32.9,24.9,28.85,NNW,338,0.0,0.0,72,0.00,,,0.00,VWS V14.01,2013-02-13 11:15:00,
2013-02-13 05:20:00,32.7,24.7,28.85,NNW,338,0.0,0.0,72,0.00,,,0.00,VWS V14.01,2013-02-13 11:20:00,
2013-02-13 05:25:00,32.7,24.7,28.85,NNW,338,0.0,0.0,72,0.00,,,0.00,VWS V14.01,2013-02-13 11:25:00,
2013-02-13 05:30:00,32.9,24.9,28.85,NNW,338,0.0,0.0,72,0.00,,,0.00,VWS V14.01,2013-02-13 11:30:00,
2013-02-13 05:35:00,32.7,24.7,28.85,NNW,338,0.0,0.0,72,0.00,,,0.00,VWS V14.01,2013-02-13 11:35:00,
2013-02-13 05:40:00,32.7,24.7,28.85,NNW,338,0.0,0.0,72,0.00,,,0.00,VWS V14.01,2013-02-13 11:40:00,
2013-02-13 05:45:00,32.9,25.2,28.85,NNW,338,0.0,0.0,73,0.00,,,0.00,VWS V14.01,2013-02-13 11:45:00,
2013-02-13 05:50:00,32.9,25.2,28.85,NNW,338,0.9,0.9,73,0.00,,,0.00,VWS V14.01,2013-02-13 11:50:00,
2013-02-13 05:55:00,33.1,25.4,28.85,NNW,338,0.0,1.3,73,0.00,,,0.00,VWS V14.01,2013-02-13 11:55:00,
2013-02-13 06:00:00,33.1,25.4,28.85,NNW,338,1.3,1.3,73,0.00,,,0.00,VWS V14.01,2013-02-13 12:00:00,
2013-02-13 06:04:00,33.1,25.7,28.85,NNW,338,0.0,1.1,74,0.00,,,0.00,VWS V14.01,2013-02-13 12:04:00,
2013-02-13 06:09:00,32.9,25.5,28.85,NNW,338,0.0,0.0,74,0.00,,,0.00,VWS V14.01,2013-02-13 12:09:00,
2013-02-13 06:14:00,32.9,25.5,28.85,NNW,338,0.0,0.0,74,0.00,,,0.00,VWS V14.01,2013-02-13 12:14:00,
2013-02-13 06:19:00,32.9,25.5,28.85,NNW,338,0.0,0.0,74,0.00,,,0.00,VWS V14.01,2013-02-13 12:19:00,
2013-02-13 06:24:00,32.7,25.4,28.85,NNW,338,0.0,0.0,74,0.00,,,0.00,VWS V14.01,2013-02-13 12:24:00,
2013-02-13 06:29:00,32.7,25.4,28.85,NNW,338,0.0,0.0,74,0.00,,,0.00,VWS V14.01,2013-02-13 12:29:00,
2013-02-13 06:34:00,32.5,25.2,28.85,NNW,338,0.0,0.0,74,0.00,,,0.00,VWS V14.01,2013-02-13 12:34:00,
2013-02-13 06:39:00,32.5,25.2,28.85,NNW,338,0.0,0.0,74,0.00,,,0.00,VWS V14.01,2013-02-13 12:39:00,
2013-02-13 06:44:00,32.5,25.2,28.85,NNW,338,0.0,0.0,74,0.00,,,0.00,VWS V14.01,2013-02-13 12:44:00,
2013-02-13 06:49:00,32.5,25.5,28.85,NNW,338,0.0,0.0,75,0.00,,,0.00,VWS V14.01,2013-02-13 12:49:00,
2013-02-13 06:54:00,32.5,25.5,28.85,NNW,338,0.0,0.0,75,0.00,,,0.00,VWS V14.01,2013-02-13 12:54:00,
2013-02-13 06:59:00,32.4,25.0,28.85,NNW,338,0.0,0.0,74,0.00,,,0.00,VWS V14.01,2013-02-13 12:59:00,
2013-02-13 07:04:00,32.4,25.3,28.88,NNW,338,0.0,0.0,75,0.00,,,0.00,VWS V14.01,2013-02-13 13:04:00,
2013-02-13 07:09:00,32.5,25.5,28.88,NNW,338,0.0,0.0,75,0.00,,,0.00,VWS V14.01,2013-02-13 13:09:00,
2013-02-13 07:14:00,32.5,25.2,28.88,NNW,338,0.0,0.0,74,0.00,,,0.00,VWS V14.01,2013-02-13 13:14:00,
2013-02-13 07:19:00,32.5,25.5,28.85,NNW,338,0.0,0.0,75,0.00,,,0.00,VWS V14.01,2013-02-13 13:19:00,
2013-02-13 07:24:00,32.4,25.0,28.85,NNW,338,0.0,0.0,74,0.00,,,0.00,VWS V14.01,2013-02-13 13:24:00,
2013-02-13 07:29:00,32.2,24.8,28.85,NNW,338,0.0,0.0,74,0.00,,,0.00,VWS V14.01,2013-02-13 13:29:00,
2013-02-13 07:34:00,32.2,24.8,28.88,NNW,338,0.0,0.0,74,0.00,,,0.00,VWS V14.01,2013-02-13 13:34:00,
2013-02-13 07:39:00,32.4,25.0,28.88,NNW,338,0.0,0.0,74,0.00,,,0.00,VWS V14.01,2013-02-13 13:39:00,
2013-02-13 07:44:00,32.4,25.0,28.88,NNW,338,0.0,0.0,74,0.00,,,0.00,VWS V14.01,2013-02-13 13:44:00,
2013-02-13 07:49:00,32.7,25.4,28.88,NNW,338,0.0,0.0,74,0.00,,,0.00,VWS V14.01,2013-02-13 13:49:00,
2013-02-13 07:54:00,33.1,26.0,28.88,NNW,338,0.0,0.0,75,0.00,,,0.00,VWS V14.01,2013-02-13 13:54:00,
2013-02-13 07:59:00,34.0,26.2,28.88,NNW,338,0.0,0.0,73,0.00,,,0.00,VWS V14.01,2013-02-13 13:59:00,
2013-02-13 08:04:00,35.4,27.3,28.88,NNW,338,0.0,0.0,72,0.00,,,0.00,VWS V14.01,2013-02-13 14:04:00,
2013-02-13 08:09:00,36.5,27.3,28.88,NNW,338,1.1,1.1,69,0.00,,,0.00,VWS V14.01,2013-02-13 14:09:00,
2013-02-13 08:14:00,36.0,25.7,28.88,NNW,338,0.0,0.0,66,0.00,,,0.00,VWS V14.01,2013-02-13 14:14:00,
2013-02-13 08:19:00,35.6,24.6,28.88,NNW,338,2.5,2.5,64,0.00,,,0.00,VWS V14.01,2013-02-13 14:19:00,
2013-02-13 08:24:00,37.4,26.7,28.88,NNW,338,2.0,2.0,65,0.00,,,0.00,VWS V14.01,2013-02-13 14:24:00,
2013-02-13 08:29:00,41.5,26.6,28.88,NNW,338,2.0,2.0,55,0.00,,,0.00,VWS V14.01,2013-02-13 14:29:00,
2013-02-13 08:34:00,45.7,28.6,28.88,NNW,338,2.2,2.2,51,0.00,,,0.00,VWS V14.01,2013-02-13 14:34:00,
2013-02-13 08:39:00,46.2,27.6,28.88,NNW,338,1.3,1.3,48,0.00,,,0.00,VWS V14.01,2013-02-13 14:39:00,
2013-02-13 08:44:00,49.1,29.2,28.88,WNW,292,1.3,1.3,46,0.00,,,0.00,VWS V14.01,2013-02-13 14:44:00,
2013-02-13 08:49:00,47.3,26.5,28.88,SE,135,2.7,2.7,44,0.00,,,0.00,VWS V14.01,2013-02-13 14:49:00,
2013-02-13 08:54:00,48.2,25.0,28.88,ENE,68,1.3,1.3,40,0.00,,,0.00,VWS V14.01,2013-02-13 14:54:00,
2013-02-13 08:59:00,50.4,26.4,28.88,SE,135,2.7,2.7,39,0.00,,,0.00,VWS V14.01,2013-02-13 14:59:00,
2013-02-13 09:04:00,49.1,25.2,28.88,SSW,202,1.6,1.6,39,0.00,,,0.00,VWS V14.01,2013-02-13 15:04:00,
2013-02-13 09:09:00,49.6,25.7,28.88,South,180,2.0,2.0,39,0.00,,,0.00,VWS V14.01,2013-02-13 15:09:00,
2013-02-13 09:14:00,48.4,24.6,28.88,SSE,158,4.3,4.3,39,0.00,,,0.00,VWS V14.01,2013-02-13 15:14:00,
2013-02-13 09:19:00,50.2,26.2,28.88,West,270,0.0,1.6,39,0.04,,,0.04,VWS V14.01,2013-02-13 15:19:00,
2013-02-13 09:24:00,48.7,24.3,28.88,ESE,112,2.0,2.0,38,0.04,,,0.04,VWS V14.01,2013-02-13 15:24:00,
2013-02-13 09:29:00,48.2,24.4,28.88,West,270,2.2,2.2,39,0.04,,,0.04,VWS V14.01,2013-02-13 15:29:00,
2013-02-13 09:34:00,49.8,25.2,28.85,SE,135,2.5,2.5,38,0.04,,,0.04,VWS V14.01,2013-02-13 15:34:00,
2013-02-13 09:39:00,49.1,25.2,28.85,West,270,1.6,1.6,39,0.04,,,0.04,VWS V14.01,2013-02-13 15:39:00,
2013-02-13 09:44:00,48.6,25.4,28.85,West,270,1.3,2.9,40,0.08,,,0.08,VWS V14.01,2013-02-13 15:44:00,
2013-02-13 09:49:00,47.7,25.7,28.85,NNW,338,1.6,2.0,42,0.08,,,0.08,VWS V14.01,2013-02-13 15:49:00,
2013-02-13 09:54:00,46.4,26.2,28.85,WNW,292,2.9,2.9,45,0.08,,,0.08,VWS V14.01,2013-02-13 15:54:00,
2013-02-13 09:59:00,44.2,26.3,28.85,South,180,2.9,2.9,49,0.08,,,0.08,VWS V14.01,2013-02-13 15:59:00,
2013-02-13 10:04:00,43.9,26.5,28.85,SSE,158,4.3,4.3,50,0.08,,,0.08,VWS V14.01,2013-02-13 16:04:00,
2013-02-13 10:09:00,43.5,26.1,28.85,SSW,202,3.6,3.6,50,0.08,,,0.08,VWS V14.01,2013-02-13 16:09:00,
2013-02-13 10:14:00,43.7,26.8,28.85,ESE,112,3.6,3.6,51,0.08,,,0.08,VWS V14.01,2013-02-13 16:14:00,
2013-02-13 10:19:00,43.9,26.9,28.85,South,180,5.8,5.8,51,0.04,,,0.08,VWS V14.01,2013-02-13 16:19:00,
2013-02-13 10:24:00,44.8,28.2,28.85,West,270,2.0,2.5,52,0.08,,,0.12,VWS V14.01,2013-02-13 16:24:00,
2013-02-13 10:29:00,45.5,28.4,28.85,West,270,2.7,4.0,51,0.08,,,0.12,VWS V14.01,2013-02-13 16:29:00,
2013-02-13 10:34:00,46.0,28.5,28.85,ENE,68,3.6,3.6,50,0.08,,,0.12,VWS V14.01,2013-02-13 16:34:00,
2013-02-13 10:39:00,47.1,29.5,28.85,SSE,158,4.9,4.9,50,0.08,,,0.12,VWS V14.01,2013-02-13 16:39:00,
2013-02-13 10:44:00,47.8,30.1,28.85,West,270,2.2,2.9,50,0.04,,,0.12,VWS V14.01,2013-02-13 16:44:00,
2013-02-13 10:49:00,48.4,30.1,28.85,South,180,5.6,5.6,49,0.04,,,0.12,VWS V14.01,2013-02-13 16:49:00,
2013-02-13 10:54:00,48.0,29.3,28.85,ENE,68,2.0,2.0,48,0.04,,,0.12,VWS V14.01,2013-02-13 16:54:00,
2013-02-13 10:59:00,48.9,29.6,28.85,WSW,248,2.5,3.8,47,0.04,,,0.12,VWS V14.01,2013-02-13 16:59:00,
2013-02-13 11:04:00,50.2,30.8,28.85,SW,225,2.0,3.1,47,0.04,,,0.12,VWS V14.01,2013-02-13 17:04:00,
2013-02-13 11:09:00,51.3,31.7,28.85,SSW,202,4.0,4.0,47,0.04,,,0.12,VWS V14.01,2013-02-13 17:09:00,
2013-02-13 11:14:00,50.4,29.8,28.85,WNW,292,2.5,4.3,45,0.04,,,0.12,VWS V14.01,2013-02-13 17:14:00,
2013-02-13 11:19:00,51.6,32.1,28.85,NNE,22,1.6,1.6,47,0.04,,,0.12,VWS V14.01,2013-02-13 17:19:00,
2013-02-13 11:24:00,52.5,31.8,28.85,SSW,202,5.4,5.4,45,0.04,,,0.12,VWS V14.01,2013-02-13 17:24:00,
2013-02-13 11:29:00,51.6,30.4,28.85,ESE,112,3.8,3.8,44,0.00,,,0.12,VWS V14.01,2013-02-13 17:29:00,
2013-02-13 11:34:00,52.3,30.5,28.85,West,270,3.4,3.4,43,0.00,,,0.12,VWS V14.01,2013-02-13 17:34:00,
2013-02-13 11:39:00,53.1,31.2,28.85,NW,315,3.1,3.1,43,0.00,,,0.12,VWS V14.01,2013-02-13 17:39:00,
2013-02-13 11:44:00,53.8,31.2,28.85,SSW,202,3.8,3.8,42,0.00,,,0.12,VWS V14.01,2013-02-13 17:44:00,
2013-02-13 11:49:00,52.5,29.5,28.85,WNW,292,2.0,2.0,41,0.00,,,0.12,VWS V14.01,2013-02-13 17:49:00,
2013-02-13 11:54:00,52.5,28.3,28.85,SSW,202,5.4,5.4,39,0.00,,,0.12,VWS V14.01,2013-02-13 17:54:00,
2013-02-13 11:59:00,51.8,28.3,28.85,SW,225,2.5,2.5,40,0.00,,,0.12,VWS V14.01,2013-02-13 17:59:00,
2013-02-13 12:04:00,51.3,29.0,28.85,WNW,292,3.6,3.6,42,0.00,,,0.12,VWS V14.01,2013-02-13 18:04:00,
2013-02-13 12:09:00,53.1,28.1,28.85,SSW,202,1.3,6.3,38,0.00,,,0.12,VWS V14.01,2013-02-13 18:09:00,
2013-02-13 12:14:00,53.1,28.8,28.85,South,180,3.1,3.1,39,0.00,,,0.12,VWS V14.01,2013-02-13 18:14:00,
2013-02-13 12:19:00,51.8,27.0,28.85,SSW,202,2.0,4.7,38,0.00,,,0.12,VWS V14.01,2013-02-13 18:19:00,
2013-02-13 12:24:00,52.9,28.0,28.85,ENE,68,3.6,6.5,38,0.00,,,0.12,VWS V14.01,2013-02-13 18:24:00,
2013-02-13 12:29:00,53.8,28.8,28.85,ESE,112,2.7,2.7,38,0.00,,,0.12,VWS V14.01,2013-02-13 18:29:00,
2013-02-13 12:34:00,51.8,27.6,28.85,WSW,248,2.5,2.5,39,0.00,,,0.12,VWS V14.01,2013-02-13 18:34:00,
2013-02-13 12:39:00,50.0,26.6,28.85,WNW,292,2.0,2.0,40,0.00,,,0.12,VWS V14.01,2013-02-13 18:39:00,
2013-02-13 12:44:00,50.2,26.2,28.85,WSW,248,7.4,7.4,39,0.00,,,0.12,VWS V14.01,2013-02-13 18:44:00,
2013-02-13 12:49:00,53.1,28.8,28.82,WNW,292,2.5,3.8,39,0.00,,,0.12,VWS V14.01,2013-02-13 18:49:00,
2013-02-13 12:54:00,52.5,28.3,28.82,South,180,2.5,2.5,39,0.00,,,0.12,VWS V14.01,2013-02-13 18:54:00,
2013-02-13 12:59:00,53.6,28.6,28.82,WNW,292,3.8,3.8,38,0.00,,,0.12,VWS V14.01,2013-02-13 18:59:00,
2013-02-13 13:04:00,49.6,25.1,28.82,WSW,248,1.6,1.6,38,0.00,,,0.12,VWS V14.01,2013-02-13 19:04:00,
2013-02-13 13:09:00,52.3,28.1,28.82,NW,315,2.7,2.7,39,0.00,,,0.12,VWS V14.01,2013-02-13 19:09:00,
2013-02-13 13:14:00,53.2,27.7,28.82,SSW,202,4.0,4.0,37,0.00,,,0.12,VWS V14.01,2013-02-13 19:14:00,
2013-02-13 13:19:00,53.1,27.5,28.82,SW,225,6.0,6.0,37,0.00,,,0.12,VWS V14.01,2013-02-13 19:19:00,
2013-02-13 13:24:00,50.7,25.4,28.82,NW,315,2.7,2.7,37,0.00,,,0.12,VWS V14.01,2013-02-13 19:24:00,
2013-02-13 13:29:00,53.1,27.5,28.82,SW,225,3.1,3.4,37,0.00,,,0.12,VWS V14.01,2013-02-13 19:29:00,
2013-02-13 13:34:00,52.5,27.0,28.79,SSW,202,3.8,3.8,37,0.00,,,0.12,VWS V14.01,2013-02-13 19:34:00,
2013-02-13 13:39:00,53.1,27.5,28.79,NNE,22,2.7,2.7,37,0.00,,,0.12,VWS V14.01,2013-02-13 19:39:00,
2013-02-13 13:44:00,54.9,28.4,28.79,SSE,158,4.3,4.3,36,0.00,,,0.12,VWS V14.01,2013-02-13 19:44:00,
2013-02-13 13:49:00,52.0,25.9,28.79,ESE,112,2.5,2.5,36,0.00,,,0.12,VWS V14.01,2013-02-13 19:49:00,
2013-02-13 13:54:00,53.1,26.8,28.79,SW,225,2.0,3.1,36,0.00,,,0.12,VWS V14.01,2013-02-13 19:54:00,
2013-02-13 13:59:00,53.1,26.8,28.79,West,270,2.7,6.7,36,0.00,,,0.12,VWS V14.01,2013-02-13 19:59:00,
2013-02-13 14:04:00,52.7,26.5,28.76,SSE,158,1.3,1.3,36,0.00,,,0.12,VWS V14.01,2013-02-13 20:04:00,
2013-02-13 14:09:00,53.4,27.1,28.76,WSW,248,3.6,3.6,36,0.00,,,0.12,VWS V14.01,2013-02-13 20:09:00,
2013-02-13 14:14:00,54.3,27.3,28.76,WNW,292,2.7,2.9,35,0.00,,,0.12,VWS V14.01,2013-02-13 20:14:00,
2013-02-13 14:19:00,54.0,27.0,28.76,ESE,112,7.6,7.6,35,0.00,,,0.12,VWS V14.01,2013-02-13 20:19:00,
2013-02-13 14:24:00,54.0,27.0,28.76,SW,225,2.2,2.7,35,0.00,,,0.12,VWS V14.01,2013-02-13 20:24:00,
2013-02-13 14:29:00,54.9,27.8,28.76,WSW,248,2.2,2.2,35,0.00,,,0.12,VWS V14.01,2013-02-13 20:29:00,
2013-02-13 14:34:00,53.8,26.8,28.76,ENE,68,3.4,3.4,35,0.00,,,0.12,VWS V14.01,2013-02-13 20:34:00,
2013-02-13 14:39:00,53.2,27.0,28.76,SW,225,8.7,8.7,36,0.00,,,0.12,VWS V14.01,2013-02-13 20:39:00,
2013-02-13 14:44:00,54.7,27.6,28.76,SSW,202,3.6,3.6,35,0.00,,,0.12,VWS V14.01,2013-02-13 20:44:00,
2013-02-13 14:49:00,55.2,27.4,28.76,South,180,1.6,1.6,34,0.00,,,0.12,VWS V14.01,2013-02-13 20:49:00,
2013-02-13 14:54:00,56.8,29.5,28.76,NNW,338,1.6,3.4,35,0.00,,,0.12,VWS V14.01,2013-02-13 20:54:00,
2013-02-13 14:59:00,55.2,27.4,28.76,SSW,202,2.5,2.5,34,0.00,,,0.12,VWS V14.01,2013-02-13 20:59:00,
2013-02-13 15:04:00,53.4,24.3,28.76,WNW,292,2.5,3.6,32,0.00,,,0.12,VWS V14.01,2013-02-13 21:04:00,
2013-02-13 15:09:00,55.2,26.6,28.73,WSW,248,2.2,2.2,33,0.00,,,0.12,VWS V14.01,2013-02-13 21:09:00,
2013-02-13 15:14:00,56.5,28.5,28.73,WSW,248,3.6,3.6,34,0.00,,,0.12,VWS V14.01,2013-02-13 21:14:00,
2013-02-13 15:19:00,55.8,26.4,28.73,SSE,158,5.6,5.6,32,0.00,,,0.12,VWS V14.01,2013-02-13 21:19:00,
2013-02-13 15:24:00,54.3,25.9,28.73,WSW,248,2.0,2.0,33,0.00,,,0.12,VWS V14.01,2013-02-13 21:24:00,
2013-02-13 15:29:00,54.7,26.2,28.73,WNW,292,4.0,4.0,33,0.00,,,0.12,VWS V14.01,2013-02-13 21:29:00,
2013-02-13 15:34:00,55.6,26.2,28.73,WSW,248,3.6,5.4,32,0.00,,,0.12,VWS V14.01,2013-02-13 21:34:00,
2013-02-13 15:39:00,55.8,27.1,28.73,South,180,1.3,1.3,33,0.00,,,0.12,VWS V14.01,2013-02-13 21:39:00,
2013-02-13 15:44:00,53.6,24.5,28.73,WSW,248,3.1,4.0,32,0.00,,,0.12,VWS V14.01,2013-02-13 21:44:00,
2013-02-13 15:49:00,54.1,25.7,28.73,SSW,202,2.5,2.5,33,0.00,,,0.12,VWS V14.01,2013-02-13 21:49:00,
2013-02-13 15:54:00,53.6,23.7,28.73,South,180,3.4,5.8,31,0.00,,,0.12,VWS V14.01,2013-02-13 21:54:00,
2013-02-13 15:59:00,52.9,23.9,28.73,SSE,158,2.0,2.0,32,0.00,,,0.12,VWS V14.01,2013-02-13 21:59:00,
2013-02-13 16:04:00,53.8,25.4,28.73,West,270,1.3,1.3,33,0.00,,,0.12,VWS V14.01,2013-02-13 22:04:00,
2013-02-13 16:09:00,52.3,23.4,28.73,SSW,202,3.1,3.1,32,0.00,,,0.12,VWS V14.01,2013-02-13 22:09:00,
2013-02-13 16:14:00,52.7,24.4,28.73,WNW,292,4.3,4.3,33,0.00,,,0.12,VWS V14.01,2013-02-13 22:14:00,
2013-02-13 16:19:00,52.7,24.4,28.73,WSW,248,2.5,2.5,33,0.00,,,0.12,VWS V14.01,2013-02-13 22:19:00,
2013-02-13 16:24:00,51.4,24.0,28.73,North,0,2.5,2.9,34,0.00,,,0.12,VWS V14.01,2013-02-13 22:24:00,
2013-02-13 16:29:00,50.7,22.7,28.73,SSW,202,4.0,4.0,33,0.00,,,0.12,VWS V14.01,2013-02-13 22:29:00,
2013-02-13 16:34:00,50.4,23.1,28.73,WNW,292,0.0,2.0,34,0.00,,,0.12,VWS V14.01,2013-02-13 22:34:00,
2013-02-13 16:39:00,49.6,22.4,28.73,ESE,112,2.7,3.1,34,0.00,,,0.12,VWS V14.01,2013-02-13 22:39:00,
2013-02-13 16:44:00,48.9,22.5,28.73,West,270,1.3,1.3,35,0.00,,,0.12,VWS V14.01,2013-02-13 22:44:00,
2013-02-13 16:49:00,48.0,22.4,28.73,West,270,2.0,2.0,36,0.00,,,0.12,VWS V14.01,2013-02-13 22:49:00,
2013-02-13 16:54:00,46.8,21.9,28.73,SE,135,2.2,2.2,37,0.00,,,0.12,VWS V14.01,2013-02-13 22:54:00,
2013-02-13 16:59:00,45.1,21.1,28.73,SSE,158,1.1,1.3,38,0.00,,,0.12,VWS V14.01,2013-02-13 22:59:00,
2013-02-13 17:04:00,44.4,20.4,28.76,SW,225,2.5,2.5,38,0.00,,,0.12,VWS V14.01,2013-02-13 23:04:00,
2013-02-13 17:09:00,44.1,20.7,28.76,West,270,1.3,2.5,39,0.00,,,0.12,VWS V14.01,2013-02-13 23:09:00,
2013-02-13 17:14:00,43.5,20.2,28.76,NE,45,2.5,2.5,39,0.00,,,0.12,VWS V14.01,2013-02-13 23:14:00,
2013-02-13 17:19:00,43.5,20.2,28.76,WSW,248,1.3,1.6,39,0.00,,,0.12,VWS V14.01,2013-02-13 23:19:00,
2013-02-13 17:24:00,43.0,20.3,28.76,SSE,158,2.0,2.0,40,0.00,,,0.12,VWS V14.01,2013-02-13 23:24:00,
2013-02-13 17:29:00,42.6,20.0,28.76,SSW,202,3.1,3.1,40,0.00,,,0.12,VWS V14.01,2013-02-13 23:29:00,
2013-02-13 17:34:00,42.1,20.1,28.76,SSW,202,0.0,1.1,41,0.00,,,0.12,VWS V14.01,2013-02-13 23:34:00,
2013-02-13 17:39:00,41.7,19.8,28.76,WSW,248,1.1,1.1,41,0.00,,,0.12,VWS V14.01,2013-02-13 23:39:00,
2013-02-13 17:44:00,41.0,19.7,28.76,West,270,1.6,1.6,42,0.00,,,0.12,VWS V14.01,2013-02-13 23:44:00,
2013-02-13 17:49:00,41.0,19.7,28.79,SSE,158,0.9,1.6,42,0.00,,,0.12,VWS V14.01,2013-02-13 23:49:00,
2013-02-13 17:54:00,40.5,19.7,28.79,WSW,248,0.0,0.9,43,0.00,,,0.12,VWS V14.01,2013-02-13 23:54:00,
2013-02-13 17:59:00,40.3,20.1,28.79,SSE,158,1.6,2.5,44,0.00,,,0.12,VWS V14.01,2013-02-13 23:59:00,
2013-02-13 18:04:00,39.9,19.8,28.79,SSW,202,0.0,0.0,44,0.00,,,0.12,VWS V14.01,2013-02-14 00:04:00,
2013-02-13 18:09:00,39.6,20.0,28.79,South,180,0.0,0.0,45,0.00,,,0.12,VWS V14.01,2013-02-14 00:09:00,
2013-02-13 18:14:00,39.2,20.2,28.79,ESE,112,2.9,2.9,46,0.00,,,0.12,VWS V14.01,2013-02-14 00:14:00,
2013-02-13 18:19:00,39.4,20.3,28.79,NE,45,2.0,2.0,46,0.00,,,0.12,VWS V14.01,2013-02-14 00:19:00,
2013-02-13 18:24:00,39.4,21.3,28.79,SE,135,0.0,2.9,48,0.00,,,0.12,VWS V14.01,2013-02-14 00:24:00,
2013-02-13 18:29:00,38.8,20.4,28.79,SSW,202,2.2,2.9,47,0.00,,,0.12,VWS V14.01,2013-02-14 00:29:00,
2013-02-13 18:34:00,38.8,20.8,28.79,SE,135,1.1,1.3,48,0.00,,,0.12,VWS V14.01,2013-02-14 00:34:00,
2013-02-13 18:39:00,38.5,20.5,28.79,SSE,158,0.0,0.0,48,0.00,,,0.12,VWS V14.01,2013-02-14 00:39:00,
2013-02-13 18:44:00,38.3,20.8,28.79,SE,135,0.0,0.0,49,0.00,,,0.12,VWS V14.01,2013-02-14 00:44:00,
2013-02-13 18:49:00,38.5,21.0,28.79,East,90,0.0,2.2,49,0.00,,,0.12,VWS V14.01,2013-02-14 00:49:00,
2013-02-13 18:54:00,38.1,20.7,28.79,SSE,158,0.0,0.0,49,0.00,,,0.12,VWS V14.01,2013-02-14 00:54:00,
2013-02-13 18:59:00,37.9,20.5,28.79,South,180,2.0,2.0,49,0.00,,,0.12,VWS V14.01,2013-02-14 00:59:00,
2013-02-13 19:04:00,37.9,21.0,28.82,South,180,1.1,1.6,50,0.00,,,0.12,VWS V14.01,2013-02-14 01:04:00,
2013-02-13 19:09:00,37.8,20.8,28.82,ESE,112,1.1,1.1,50,0.00,,,0.12,VWS V14.01,2013-02-14 01:09:00,
2013-02-13 19:14:00,37.4,20.5,28.82,SSW,202,0.0,0.0,50,0.00,,,0.12,VWS V14.01,2013-02-14 01:14:00,
2013-02-13 19:19:00,37.4,20.5,28.82,NNE,22,2.0,2.0,50,0.00,,,0.12,VWS V14.01,2013-02-14 01:19:00,
2013-02-13 19:24:00,37.4,20.5,28.82,WSW,248,0.0,0.0,50,0.00,,,0.12,VWS V14.01,2013-02-14 01:24:00,
2013-02-13 19:29:00,36.9,20.4,28.82,South,180,0.0,0.0,51,0.00,,,0.12,VWS V14.01,2013-02-14 01:29:00,
2013-02-13 19:34:00,37.2,20.8,28.82,ESE,112,0.0,0.0,51,0.00,,,0.12,VWS V14.01,2013-02-14 01:34:00,
2013-02-13 19:39:00,37.6,21.1,28.82,ESE,112,2.7,2.7,51,0.00,,,0.12,VWS V14.01,2013-02-14 01:39:00,
2013-02-13 19:44:00,37.4,20.9,28.82,South,180,3.8,3.8,51,0.00,,,0.12,VWS V14.01,2013-02-14 01:44:00,
2013-02-13 19:49:00,37.2,21.2,28.82,SE,135,0.0,1.1,52,0.00,,,0.12,VWS V14.01,2013-02-14 01:49:00,
2013-02-13 19:54:00,36.9,20.9,28.82,SE,135,0.0,0.0,52,0.00,,,0.12,VWS V14.01,2013-02-14 01:54:00,
2013-02-13 19:59:00,36.7,20.7,28.82,SE,135,0.0,0.0,52,0.00,,,0.12,VWS V14.01,2013-02-14 01:59:00,
2013-02-13 20:04:00,36.5,21.0,28.82,SE,135,0.0,0.0,53,0.00,,,0.12,VWS V14.01,2013-02-14 02:04:00,
2013-02-13 20:09:00,36.5,21.0,28.82,SE,135,0.0,0.0,53,0.00,,,0.12,VWS V14.01,2013-02-14 02:09:00,
2013-02-13 20:14:00,36.3,20.4,28.82,SE,135,0.0,0.0,52,0.00,,,0.12,VWS V14.01,2013-02-14 02:14:00,
2013-02-13 20:19:00,35.8,19.9,28.82,SE,135,0.0,0.0,52,0.00,,,0.12,VWS V14.01,2013-02-14 02:19:00,
2013-02-13 20:24:00,35.6,20.2,28.82,SE,135,0.0,0.0,53,0.00,,,0.12,VWS V14.01,2013-02-14 02:24:00,
2013-02-13 20:29:00,35.8,20.8,28.82,SE,135,0.0,0.0,54,0.00,,,0.12,VWS V14.01,2013-02-14 02:29:00,
2013-02-13 20:34:00,35.4,20.4,28.82,SE,135,0.0,0.0,54,0.00,,,0.12,VWS V14.01,2013-02-14 02:34:00,
2013-02-13 20:39:00,35.2,20.7,28.82,SE,135,0.0,0.0,55,0.00,,,0.12,VWS V14.01,2013-02-14 02:39:00,
2013-02-13 20:44:00,35.2,20.7,28.82,SE,135,0.0,0.0,55,0.00,,,0.12,VWS V14.01,2013-02-14 02:44:00,
2013-02-13 20:49:00,35.4,20.9,28.82,SE,135,0.0,0.0,55,0.00,,,0.12,VWS V14.01,2013-02-14 02:49:00,
2013-02-13 20:54:00,35.6,21.0,28.82,SE,135,0.0,0.0,55,0.00,,,0.12,VWS V14.01,2013-02-14 02:54:00,
2013-02-13 20:59:00,35.6,21.0,28.82,SSW,202,0.0,2.5,55,0.00,,,0.12,VWS V14.01,2013-02-14 02:59:00,
2013-02-13 21:04:00,35.8,21.2,28.82,SE,135,0.0,1.3,55,0.00,,,0.12,VWS V14.01,2013-02-14 03:04:00,
2013-02-13 21:09:00,35.6,21.0,28.85,SE,135,0.0,0.0,55,0.00,,,0.12,VWS V14.01,2013-02-14 03:09:00,
2013-02-13 21:14:00,35.1,20.5,28.85,SE,135,0.0,0.0,55,0.00,,,0.12,VWS V14.01,2013-02-14 03:14:00,
2013-02-13 21:19:00,35.1,21.0,28.85,SE,135,0.0,0.0,56,0.00,,,0.12,VWS V14.01,2013-02-14 03:19:00,
2013-02-13 21:24:00,34.5,20.5,28.85,SE,135,0.0,0.0,56,0.00,,,0.12,VWS V14.01,2013-02-14 03:24:00,
2013-02-13 21:29:00,33.8,19.4,28.85,SE,135,0.0,0.0,55,0.00,,,0.12,VWS V14.01,2013-02-14 03:29:00,
2013-02-13 21:34:00,33.6,20.0,28.82,SE,135,0.0,0.0,57,0.00,,,0.12,VWS V14.01,2013-02-14 03:34:00,
2013-02-13 21:39:00,33.3,19.7,28.82,SE,135,0.0,0.0,57,0.00,,,0.12,VWS V14.01,2013-02-14 03:39:00,
2013-02-13 21:44:00,33.1,19.5,28.82,SE,135,0.0,0.0,57,0.00,,,0.12,VWS V14.01,2013-02-14 03:44:00,
2013-02-13 21:49:00,32.9,19.8,28.82,SE,135,0.0,0.0,58,0.00,,,0.12,VWS V14.01,2013-02-14 03:49:00,
2013-02-13 21:54:00,32.7,19.6,28.82,SE,135,0.0,0.0,58,0.00,,,0.12,VWS V14.01,2013-02-14 03:54:00,
2013-02-13 21:59:00,32.5,19.4,28.82,SE,135,0.0,0.0,58,0.00,,,0.12,VWS V14.01,2013-02-14 03:59:00,
2013-02-13 22:04:00,32.5,19.8,28.85,SE,135,0.0,0.0,59,0.00,,,0.12,VWS V14.01,2013-02-14 04:04:00,
2013-02-13 22:09:00,32.5,19.8,28.85,ENE,68,0.0,0.0,59,0.00,,,0.12,VWS V14.01,2013-02-14 04:09:00,
2013-02-13 22:14:00,32.5,19.8,28.85,ENE,68,0.0,0.0,59,0.00,,,0.12,VWS V14.01,2013-02-14 04:14:00,
2013-02-13 22:19:00,32.4,20.0,28.85,ENE,68,0.0,0.0,60,0.00,,,0.12,VWS V14.01,2013-02-14 04:19:00,
2013-02-13 22:24:00,32.2,19.9,28.85,North,0,0.0,0.9,60,0.00,,,0.12,VWS V14.01,2013-02-14 04:24:00,
2013-02-13 22:29:00,32.2,19.9,28.85,North,0,0.0,0.0,60,0.00,,,0.12,VWS V14.01,2013-02-14 04:29:00,
2013-02-13 22:34:00,32.0,19.7,28.82,North,0,0.0,0.0,60,0.00,,,0.12,VWS V14.01,2013-02-14 04:34:00,
2013-02-13 22:39:00,32.4,20.4,28.82,North,0,0.0,0.0,61,0.00,,,0.12,VWS V14.01,2013-02-14 04:39:00,
2013-02-13 22:44:00,32.5,20.6,28.82,NNE,22,1.1,1.1,61,0.00,,,0.12,VWS V14.01,2013-02-14 04:44:00,
2013-02-13 22:49:00,33.1,21.1,28.82,NNE,22,0.9,0.9,61,0.00,,,0.12,VWS V14.01,2013-02-14 04:49:00,
2013-02-13 22:54:00,33.3,21.7,28.82,NE,45,2.0,2.0,62,0.00,,,0.12,VWS V14.01,2013-02-14 04:54:00,
2013-02-13 22:59:00,34.7,23.8,28.82,East,90,0.0,1.6,64,0.00,,,0.12,VWS V14.01,2013-02-14 04:59:00,
2013-02-13 23:00:00,34.7,23.8,28.82,East,90,2.2,2.2,64,0.00,,,0.00,VWS V14.01,2013-02-14 05:00:00,
2013-02-13 23:05:00,34.9,23.2,28.82,NE,45,2.7,2.7,62,0.00,,,0.12,VWS V14.01,2013-02-14 05:05:00,
2013-02-13 23:10:00,35.4,23.3,28.82,ENE,68,3.6,3.6,61,0.00,,,0.12,VWS V14.01,2013-02-14 05:10:00,
2013-02-13 23:15:00,35.2,22.4,28.82,East,90,1.1,2.2,59,0.00,,,0.12,VWS V14.01,2013-02-14 05:15:00,
2013-02-13 23:20:00,35.6,22.3,28.82,SSW,202,3.4,3.4,58,0.00,,,0.12,VWS V14.01,2013-02-14 05:20:00,
2013-02-13 23:25:00,36.1,22.8,28.82,ESE,112,1.3,2.5,58,0.00,,,0.12,VWS V14.01,2013-02-14 05:25:00,
2013-02-13 23:30:00,36.3,22.6,28.82,SSE,158,2.5,2.9,57,0.00,,,0.12,VWS V14.01,2013-02-14 05:30:00,
2013-02-13 23:35:00,36.3,22.1,28.82,SSW,202,3.6,3.6,56,0.00,,,0.12,VWS V14.01,2013-02-14 05:35:00,
2013-02-13 23:40:00,36.7,22.5,28.82,ENE,68,1.3,2.2,56,0.00,,,0.12,VWS V14.01,2013-02-14 05:40:00,
2013-02-13 23:45:00,37.0,22.8,28.82,SSE,158,0.9,0.9,56,0.00,,,0.12,VWS V14.01,2013-02-14 05:45:00,
2013-02-13 23:50:00,37.2,22.6,28.82,ENE,68,0.0,2.5,55,0.00,,,0.12,VWS V14.01,2013-02-14 05:50:00,
2013-02-13 23:55:00,37.6,22.5,28.82,SE,135,1.3,1.3,54,0.00,,,0.12,VWS V14.01,2013-02-14 05:55:00,